Starlink 32255

operational
NORAD ID: 60417 Int'l Des: 2024-141 Owner: SPXS Country: US Constellation: starlink
LEOCIRCULAR

Starlink 32255について

説明を読み込み中...

リアルタイム位置

3D地球を読み込み中...

次回通過

高度履歴

Altitude vs Time

uPlot chart will show altitude changes over time

軌道要素

1 60417U 24141V 25308.17460904 .00000169 00000-0 17833-4 0 9991
2 60417 53.1599 105.5950 0001301 76.3382 283.7764 15.30197978 70364
Epoch: Nov 4, 2025 • Age: 20 hours

現在のステータス

高度 475.4 km
速度 7.63 km/s
衛星直下点 9.79°N, 126°W
打ち上げ日 Aug 10, 2024
運用期間 1.2 years
タイプ internet

技術仕様

分類 Payload
質量 730.00 kg
乾燥質量 700.00 kg
総質量 730.00 kg
長さ 0.30 m
直径 4.10 m
スパン 29.00 m
形状 Box + pan
製造者 SPXS
バスタイプ Starlink V2M
フェーズステータス In Orbit
所有者/国 SPXS/US

大規模コンステレーション

Loading constellations...